EZY17GR GCTS-EGKK

Flight info

Callsign EZY17GR
Flight time N/A
Altitude 34000
Route KONBA UN866 OSDIV/N0444F360 UN866 BEXAL DCT ORSOS DCT ASMOV DCT AGADO DCT KORUL DCT FEJAC DCT JSY/N0424F340 DCT REVTU UP88 VASUX
Aircraft A320/M-SDE2E3FGHIRWXY/LB1

Departure

Time 2026-04-30 11:29
Airport Tenerife Sur Airport (GCTS)

Arrival

Time N/A
Airport London Gatwick Airport (EGKK)
Time Latitude Longitude Altitude Speed Heading
2026-04-30 11:16 28.04639 -16.57896 229 ft 0 kts
2026-04-30 11:21 28.04631 -16.57897 229 ft 2 kts
2026-04-30 11:21 28.04616 -16.57899 228 ft 2 kts
2026-04-30 11:21 28.04601 -16.57901 227 ft 2 kts
2026-04-30 11:22 28.04592 -16.57902 227 ft 2 kts
2026-04-30 11:22 28.04577 -16.57897 226 ft 2 kts 321°
2026-04-30 11:22 28.04567 -16.57883 226 ft 2 kts 284°
2026-04-30 11:22 28.04567 -16.57867 225 ft 0 kts 253°
2026-04-30 11:23 28.04569 -16.57861 226 ft 1 kts 245°
2026-04-30 11:23 28.04570 -16.57859 226 ft 0 kts 247°
2026-04-30 11:25 28.04555 -16.57899 225 ft 4 kts 248°
2026-04-30 11:25 28.04541 -16.57941 225 ft 7 kts 248°
2026-04-30 11:25 28.04474 -16.58125 219 ft 14 kts 222°
2026-04-30 11:26 28.04304 -16.58215 207 ft 18 kts 249°
2026-04-30 11:26 28.04252 -16.58364 204 ft 21 kts 249°
2026-04-30 11:26 28.04195 -16.58516 210 ft 19 kts 246°
2026-04-30 11:27 28.04146 -16.58667 207 ft 21 kts 249°
2026-04-30 11:27 28.04091 -16.58826 204 ft 22 kts 247°
2026-04-30 11:27 28.04044 -16.58965 199 ft 14 kts 250°
2026-04-30 11:27 28.03975 -16.58996 193 ft 15 kts 145°
2026-04-30 11:28 28.03929 -16.58738 185 ft 21 kts 70°
2026-04-30 11:28 28.04064 -16.58347 189 ft 87 kts 69°
2026-04-30 11:28 28.04366 -16.57483 201 ft 146 kts 69°
2026-04-30 11:29 28.04763 -16.56328 592 ft 160 kts 71°
2026-04-30 11:29 28.05152 -16.55145 1162 ft 165 kts 72°
2026-04-30 11:29 28.05955 -16.52702 2414 ft 170 kts 69°
2026-04-30 11:30 28.06907 -16.50046 3171 ft 197 kts 68°
2026-04-30 11:30 28.07439 -16.48557 3463 ft 212 kts 68°
2026-04-30 11:30 28.08015 -16.46927 3686 ft 234 kts 68°
2026-04-30 11:31 28.08634 -16.45156 4034 ft 251 kts 69°
2026-04-30 11:31 28.09264 -16.43262 4498 ft 263 kts 70°
2026-04-30 11:31 28.09892 -16.41317 5177 ft 266 kts 70°
2026-04-30 11:31 28.10530 -16.39329 5861 ft 270 kts 70°
2026-04-30 11:32 28.11172 -16.37331 6528 ft 273 kts 70°
2026-04-30 11:32 28.11823 -16.35307 7166 ft 279 kts 69°
2026-04-30 11:32 28.12493 -16.33231 7803 ft 284 kts 69°
2026-04-30 11:33 28.13874 -16.28958 9068 ft 294 kts 69°
2026-04-30 11:33 28.14574 -16.26788 9715 ft 299 kts 69°
2026-04-30 11:33 28.15287 -16.24578 10355 ft 304 kts 69°
2026-04-30 11:33 28.16025 -16.22291 10737 ft 317 kts 69°
2026-04-30 11:34 28.16810 -16.19859 11065 ft 333 kts 68°
2026-04-30 11:34 28.17607 -16.17378 11593 ft 340 kts 68°
2026-04-30 11:34 28.18411 -16.14874 12215 ft 343 kts 68°
2026-04-30 11:34 28.19227 -16.12335 12819 ft 346 kts 68°
2026-04-30 11:35 28.20047 -16.09777 13420 ft 349 kts 68°
2026-04-30 11:35 28.20888 -16.07197 13960 ft 352 kts 64°
2026-04-30 11:35 28.22216 -16.04877 14471 ft 348 kts 40°
2026-04-30 11:35 28.24197 -16.03385 15010 ft 342 kts 18°
2026-04-30 11:36 28.26492 -16.02842 15519 ft 336 kts 356°
2026-04-30 11:36 28.28806 -16.03097 16049 ft 336 kts 349°
2026-04-30 11:36 28.31133 -16.03452 16561 ft 339 kts 348°
2026-04-30 11:36 28.33477 -16.03805 17049 ft 342 kts 349°
2026-04-30 11:37 28.35840 -16.04153 17555 ft 344 kts 349°
2026-04-30 11:37 28.38222 -16.04498 18045 ft 347 kts 348°
2026-04-30 11:37 28.40623 -16.04842 18502 ft 349 kts 348°
2026-04-30 11:37 28.43054 -16.05189 19019 ft 350 kts 348°
2026-04-30 11:38 28.45473 -16.05533 19478 ft 353 kts 348°
2026-04-30 11:38 28.47906 -16.05880 19930 ft 355 kts 348°
2026-04-30 11:38 28.50354 -16.06228 20402 ft 356 kts 348°
2026-04-30 11:38 28.52813 -16.06578 20844 ft 358 kts 348°
2026-04-30 11:39 28.55323 -16.06935 21292 ft 360 kts 348°
2026-04-30 11:39 28.57804 -16.07288 21717 ft 362 kts 348°
2026-04-30 11:39 28.60299 -16.07643 22138 ft 363 kts 348°
2026-04-30 11:39 28.62835 -16.08004 22545 ft 365 kts 347°
2026-04-30 11:40 28.65361 -16.08363 22957 ft 367 kts 347°
2026-04-30 11:40 28.67889 -16.08723 23376 ft 368 kts 347°
2026-04-30 11:40 28.70435 -16.09085 23783 ft 370 kts 347°
2026-04-30 11:40 28.72987 -16.09449 24168 ft 372 kts 347°
2026-04-30 11:41 28.75560 -16.09818 24522 ft 374 kts 347°
2026-04-30 11:41 28.78178 -16.10193 24893 ft 376 kts 347°
2026-04-30 11:41 28.80775 -16.10564 25280 ft 378 kts 347°
2026-04-30 11:41 28.83382 -16.10938 25638 ft 379 kts 347°
2026-04-30 11:42 28.85999 -16.11314 25989 ft 381 kts 347°
2026-04-30 11:42 28.88667 -16.11695 26335 ft 383 kts 347°
2026-04-30 11:42 28.91306 -16.12072 26640 ft 385 kts 347°
2026-04-30 11:42 28.93994 -16.12234 26937 ft 393 kts 355°
2026-04-30 11:43 28.96758 -16.11950 27268 ft 401 kts
2026-04-30 11:43 28.99513 -16.11222 27592 ft 407 kts
2026-04-30 11:43 29.02240 -16.10304 27931 ft 409 kts 10°
2026-04-30 11:43 29.04957 -16.09362 28359 ft 407 kts
2026-04-30 11:44 29.07635 -16.08432 28610 ft 409 kts 10°
2026-04-30 11:44 29.10376 -16.07482 28788 ft 413 kts 10°
2026-04-30 11:44 29.13136 -16.06527 29031 ft 416 kts
2026-04-30 11:44 29.15914 -16.05568 29272 ft 418 kts 10°
2026-04-30 11:45 29.18712 -16.04603 29539 ft 419 kts
2026-04-30 11:45 29.21505 -16.03636 29830 ft 419 kts
2026-04-30 11:45 29.24317 -16.02665 30127 ft 420 kts
2026-04-30 11:45 29.27102 -16.01703 30384 ft 421 kts
2026-04-30 11:46 29.29903 -16.00735 30606 ft 422 kts
2026-04-30 11:46 29.32721 -15.99763 30818 ft 424 kts
2026-04-30 11:46 29.35550 -15.98785 31013 ft 426 kts
2026-04-30 11:46 29.38404 -15.97799 31213 ft 428 kts
2026-04-30 11:47 29.41255 -15.96812 31409 ft 429 kts
2026-04-30 11:47 29.44104 -15.95826 31765 ft 426 kts
2026-04-30 11:47 29.46944 -15.94836 32188 ft 422 kts
2026-04-30 11:47 29.49761 -15.93862 32256 ft 426 kts
2026-04-30 11:48 29.55467 -15.91890 32455 ft 432 kts
2026-04-30 11:48 29.58347 -15.90892 32607 ft 434 kts
2026-04-30 11:48 29.61242 -15.89885 32783 ft 435 kts
2026-04-30 11:49 29.64131 -15.88880 32986 ft 435 kts
2026-04-30 11:49 29.67058 -15.87861 33133 ft 436 kts
2026-04-30 11:49 29.69965 -15.86850 33281 ft 437 kts
2026-04-30 11:49 29.72878 -15.85835 33461 ft 437 kts
2026-04-30 11:50 29.75784 -15.84823 33646 ft 437 kts
2026-04-30 11:50 29.78698 -15.83807 33777 ft 438 kts
2026-04-30 11:50 29.81603 -15.82795 33953 ft 438 kts
2026-04-30 11:50 29.84535 -15.81773 34101 ft 438 kts
2026-04-30 11:51 29.90391 -15.79730 34114 ft 439 kts
2026-04-30 11:51 29.96222 -15.77689 34119 ft 438 kts
2026-04-30 11:52 30.02088 -15.75632 34121 ft 439 kts
2026-04-30 11:52 30.07915 -15.73583 34125 ft 438 kts
2026-04-30 11:53 30.13721 -15.71546 34116 ft 437 kts
2026-04-30 11:53 30.19549 -15.69493 34115 ft 436 kts
2026-04-30 11:54 30.25383 -15.67441 34118 ft 438 kts
2026-04-30 11:54 30.31189 -15.65394 34116 ft 436 kts
2026-04-30 11:55 30.36988 -15.63347 34110 ft 436 kts
2026-04-30 11:55 30.42823 -15.61285 34112 ft 437 kts
2026-04-30 11:56 30.48640 -15.59226 34110 ft 437 kts
2026-04-30 11:56 30.54437 -15.57171 34111 ft 438 kts
2026-04-30 11:57 30.60239 -15.55113 34108 ft 437 kts
2026-04-30 11:57 30.66078 -15.53042 34109 ft 438 kts
2026-04-30 11:58 30.71875 -15.50979 34108 ft 437 kts
2026-04-30 11:58 30.77715 -15.48896 34108 ft 436 kts
2026-04-30 11:59 30.83537 -15.46821 34105 ft 437 kts
2026-04-30 11:59 30.89343 -15.44749 34104 ft 437 kts
2026-04-30 12:00 30.95158 -15.42671 34104 ft 438 kts
2026-04-30 12:00 31.00970 -15.40594 34103 ft 438 kts
2026-04-30 12:01 31.06782 -15.38511 34103 ft 437 kts
2026-04-30 12:01 31.12603 -15.36423 34105 ft 436 kts
2026-04-30 12:02 31.18381 -15.34349 34100 ft 437 kts
2026-04-30 12:02 31.24212 -15.32212 34105 ft 443 kts 10°
2026-04-30 12:03 31.32771 -15.27791 34116 ft 453 kts 20°
2026-04-30 12:04 31.38201 -15.23883 34125 ft 459 kts 24°
2026-04-30 12:04 31.43499 -15.19760 34121 ft 460 kts 25°
2026-04-30 12:05 31.48847 -15.15591 34127 ft 459 kts 25°
2026-04-30 12:05 31.54145 -15.11462 34123 ft 459 kts 24°
2026-04-30 12:06 31.59457 -15.07323 34124 ft 458 kts 24°
2026-04-30 12:06 31.64736 -15.03200 34130 ft 457 kts 24°
2026-04-30 12:07 31.70062 -14.99053 34118 ft 459 kts 24°
2026-04-30 12:07 31.75346 -14.94929 34112 ft 456 kts 24°
2026-04-30 12:08 31.80625 -14.90795 34107 ft 455 kts 24°
2026-04-30 12:08 31.85869 -14.86686 34105 ft 454 kts 24°
2026-04-30 12:09 31.91111 -14.82571 34106 ft 454 kts 24°
2026-04-30 12:09 31.96359 -14.78444 34108 ft 455 kts 24°
2026-04-30 12:10 32.01618 -14.74301 34107 ft 455 kts 24°
2026-04-30 12:10 32.06865 -14.70160 34108 ft 453 kts 24°
2026-04-30 12:11 32.12120 -14.66011 34109 ft 452 kts 24°
2026-04-30 12:11 32.17318 -14.61899 34108 ft 452 kts 24°
2026-04-30 12:12 32.22542 -14.57764 34108 ft 452 kts 24°
2026-04-30 12:12 32.27774 -14.53614 34108 ft 453 kts 24°
2026-04-30 12:13 32.32977 -14.49480 34115 ft 452 kts 24°
2026-04-30 12:13 32.38197 -14.45321 34110 ft 451 kts 24°
2026-04-30 12:14 32.43367 -14.41198 34109 ft 451 kts 24°
2026-04-30 12:14 32.48568 -14.37049 34109 ft 450 kts 24°
2026-04-30 12:15 32.53748 -14.32913 34106 ft 450 kts 25°
2026-04-30 12:15 32.58944 -14.28760 34108 ft 451 kts 25°
2026-04-30 12:16 32.64119 -14.24613 34107 ft 451 kts 25°
2026-04-30 12:16 32.69331 -14.20430 34107 ft 449 kts 25°
2026-04-30 12:17 32.77095 -14.14194 34107 ft 450 kts 25°
2026-04-30 12:17 32.82256 -14.10038 34105 ft 450 kts 25°
2026-04-30 12:18 32.87458 -14.05846 34105 ft 450 kts 25°
2026-04-30 12:18 32.92626 -14.01672 34103 ft 450 kts 25°
2026-04-30 12:19 32.97776 -13.97507 34103 ft 448 kts 25°
2026-04-30 12:19 33.02922 -13.93340 34103 ft 448 kts 25°
2026-04-30 12:20 33.08098 -13.89146 34104 ft 448 kts 25°
2026-04-30 12:20 33.13221 -13.84988 34104 ft 449 kts 25°
2026-04-30 12:21 33.18380 -13.80776 34104 ft 449 kts 25°
2026-04-30 12:21 33.23533 -13.76548 34105 ft 448 kts 25°
2026-04-30 12:22 33.28666 -13.72333 34107 ft 448 kts 25°
2026-04-30 12:22 33.33791 -13.68119 34106 ft 449 kts 25°
2026-04-30 12:23 33.38927 -13.63889 34105 ft 448 kts 25°
2026-04-30 12:23 33.44052 -13.59662 34106 ft 447 kts 25°
2026-04-30 12:24 33.49183 -13.55426 34107 ft 448 kts 25°
2026-04-30 12:24 33.54328 -13.51172 34119 ft 450 kts 25°
2026-04-30 12:25 33.56903 -13.49042 34247 ft 451 kts 25°
2026-04-30 12:25 33.59494 -13.46897 34442 ft 451 kts 25°
2026-04-30 12:25 33.62041 -13.44784 34628 ft 450 kts 25°
2026-04-30 12:25 33.64615 -13.42647 34785 ft 451 kts 25°
2026-04-30 12:26 33.67203 -13.40498 34978 ft 450 kts 25°
2026-04-30 12:26 33.69780 -13.38356 35231 ft 448 kts 25°
2026-04-30 12:26 33.72337 -13.36229 35451 ft 447 kts 25°
2026-04-30 12:26 33.74868 -13.34122 35599 ft 447 kts 26°
2026-04-30 12:27 33.77410 -13.32005 35712 ft 447 kts 26°
2026-04-30 12:27 33.79971 -13.29871 35864 ft 446 kts 26°
2026-04-30 12:27 33.82508 -13.27753 36004 ft 446 kts 26°
2026-04-30 12:27 33.85061 -13.25622 36101 ft 445 kts 26°
2026-04-30 12:28 33.90118 -13.21396 36103 ft 444 kts 26°
2026-04-30 12:28 33.95204 -13.17141 36104 ft 444 kts 26°
2026-04-30 12:29 34.00270 -13.12894 36102 ft 445 kts 26°
2026-04-30 12:29 34.05360 -13.08623 36104 ft 446 kts 26°
2026-04-30 12:30 34.10422 -13.04368 36103 ft 445 kts 26°
2026-04-30 12:30 34.15494 -13.00099 36106 ft 445 kts 26°
2026-04-30 12:31 34.20559 -12.95828 36104 ft 445 kts 26°
2026-04-30 12:31 34.25645 -12.91532 36103 ft 445 kts 26°
2026-04-30 12:32 34.30724 -12.87273 36101 ft 446 kts 26°
2026-04-30 12:32 34.35828 -12.83000 36102 ft 446 kts 26°
2026-04-30 12:33 34.40934 -12.78716 36104 ft 446 kts 26°
2026-04-30 12:33 34.45995 -12.74464 35847 ft 444 kts 26°
2026-04-30 12:34 34.48537 -12.72327 35999 ft 444 kts 26°
2026-04-30 12:34 34.51061 -12.70204 36066 ft 446 kts 26°
2026-04-30 12:34 34.56175 -12.65896 36097 ft 449 kts 26°
2026-04-30 12:35 34.61319 -12.61553 36102 ft 450 kts 26°
2026-04-30 12:35 34.66434 -12.57225 36104 ft 451 kts 26°
2026-04-30 12:36 34.71589 -12.52858 36107 ft 450 kts 26°
2026-04-30 12:36 34.76761 -12.48472 36104 ft 451 kts 26°
2026-04-30 12:37 34.81914 -12.44098 36103 ft 450 kts 27°
2026-04-30 12:37 34.87059 -12.39720 36101 ft 451 kts 27°
2026-04-30 12:38 34.92220 -12.35322 36100 ft 451 kts 27°
2026-04-30 12:38 34.97500 -12.30816 36103 ft 452 kts 27°
2026-04-30 12:39 35.02634 -12.26428 36104 ft 453 kts 27°
2026-04-30 12:39 35.07811 -12.21992 36103 ft 452 kts 27°
2026-04-30 12:40 35.12993 -12.17554 36102 ft 454 kts 28°
2026-04-30 12:40 35.18175 -12.13100 36105 ft 453 kts 28°
2026-04-30 12:41 35.23370 -12.08624 36128 ft 455 kts 28°
2026-04-30 12:41 35.28581 -12.04118 36121 ft 455 kts 28°
2026-04-30 12:42 35.33837 -11.99594 36114 ft 458 kts 28°
2026-04-30 12:42 35.39067 -11.95091 36108 ft 460 kts 28°
2026-04-30 12:43 35.44310 -11.90561 36108 ft 460 kts 29°
2026-04-30 12:43 35.49559 -11.86009 36103 ft 462 kts 29°
2026-04-30 12:44 35.54892 -11.81381 36105 ft 464 kts 30°
2026-04-30 12:44 35.60177 -11.76782 36106 ft 464 kts 30°
2026-04-30 12:45 35.65500 -11.72139 36103 ft 466 kts 30°
2026-04-30 12:45 35.70833 -11.67484 36106 ft 467 kts 31°
2026-04-30 12:46 35.76232 -11.62761 36104 ft 468 kts 31°
2026-04-30 12:46 35.81591 -11.58062 36104 ft 468 kts 31°
2026-04-30 12:47 35.87043 -11.53280 36107 ft 469 kts 31°
2026-04-30 12:47 35.92390 -11.48712 36117 ft 467 kts 27°
2026-04-30 12:48 35.98074 -11.44865 36105 ft 464 kts 21°
2026-04-30 12:48 36.04038 -11.41877 36102 ft 460 kts 14°
2026-04-30 12:49 36.10102 -11.39477 36103 ft 460 kts 13°
2026-04-30 12:49 36.16199 -11.37101 36106 ft 460 kts 13°
2026-04-30 12:50 36.22313 -11.34705 36106 ft 461 kts 14°
2026-04-30 12:50 36.28490 -11.32271 36102 ft 462 kts 14°
2026-04-30 12:51 36.34642 -11.29839 36101 ft 463 kts 14°
2026-04-30 12:51 36.40783 -11.27408 36103 ft 464 kts 14°
2026-04-30 12:52 36.46965 -11.24955 36105 ft 464 kts 14°
2026-04-30 12:52 36.53092 -11.22522 36102 ft 465 kts 14°
2026-04-30 12:53 36.59347 -11.20031 36102 ft 464 kts 14°
2026-04-30 12:53 36.65523 -11.17569 36102 ft 464 kts 14°
2026-04-30 12:54 36.71679 -11.15110 36104 ft 465 kts 14°
2026-04-30 12:54 36.77819 -11.12655 36105 ft 465 kts 14°
2026-04-30 12:55 36.83966 -11.10192 36106 ft 465 kts 14°
2026-04-30 12:55 36.90158 -11.07705 36104 ft 465 kts 14°
2026-04-30 12:56 36.96277 -11.05248 36105 ft 465 kts 15°
2026-04-30 12:56 37.02448 -11.02763 36105 ft 465 kts 15°
2026-04-30 12:57 37.08590 -11.00284 36105 ft 466 kts 15°
2026-04-30 12:57 37.14805 -10.97774 36105 ft 467 kts 15°
2026-04-30 12:58 37.20958 -10.95283 36104 ft 468 kts 15°
2026-04-30 12:58 37.27165 -10.92765 36105 ft 469 kts 15°
2026-04-30 12:59 37.33364 -10.90248 36105 ft 469 kts 15°
2026-04-30 12:59 37.39592 -10.87711 36104 ft 469 kts 15°
2026-04-30 13:00 37.45771 -10.85195 36103 ft 470 kts 15°
2026-04-30 13:00 37.52027 -10.82641 36105 ft 471 kts 16°
2026-04-30 13:01 37.58234 -10.80101 36105 ft 471 kts 16°
2026-04-30 13:01 37.64469 -10.77548 36105 ft 472 kts 16°
2026-04-30 13:02 37.70697 -10.74991 36105 ft 472 kts 16°
2026-04-30 13:02 37.76976 -10.72407 36104 ft 473 kts 17°
2026-04-30 13:03 37.83202 -10.69843 36102 ft 474 kts 17°
2026-04-30 13:03 37.89462 -10.67259 36105 ft 474 kts 17°
2026-04-30 13:04 37.95722 -10.64671 36105 ft 473 kts 17°
2026-04-30 13:04 38.01966 -10.62084 36106 ft 473 kts 17°
2026-04-30 13:05 38.08218 -10.59489 36106 ft 473 kts 17°
2026-04-30 13:06 38.17603 -10.55587 36103 ft 474 kts 17°
2026-04-30 13:06 38.23873 -10.52972 36102 ft 475 kts 17°
2026-04-30 13:07 38.30137 -10.50357 36104 ft 475 kts 17°
2026-04-30 13:07 38.36421 -10.47728 36103 ft 475 kts 17°
2026-04-30 13:08 38.42676 -10.45107 36100 ft 476 kts 17°
2026-04-30 13:08 38.48984 -10.42459 36102 ft 475 kts 17°
2026-04-30 13:09 38.55233 -10.39831 36104 ft 476 kts 17°
2026-04-30 13:09 38.61533 -10.37175 36107 ft 476 kts 17°
2026-04-30 13:10 38.67825 -10.34519 36107 ft 477 kts 18°
2026-04-30 13:10 38.74121 -10.31857 36105 ft 477 kts 18°
2026-04-30 13:11 38.80409 -10.29192 36102 ft 477 kts 18°
2026-04-30 13:11 38.86666 -10.26536 36103 ft 477 kts 18°
2026-04-30 13:12 38.92965 -10.23858 36105 ft 477 kts 18°
2026-04-30 13:12 38.99262 -10.21174 36104 ft 477 kts 18°
2026-04-30 13:13 39.08705 -10.17153 36102 ft 478 kts 18°
2026-04-30 13:14 39.18188 -10.13112 36100 ft 477 kts 18°
2026-04-30 13:14 39.27623 -10.09079 36100 ft 477 kts 18°
2026-04-30 13:15 39.37042 -10.05040 36102 ft 477 kts 18°
2026-04-30 13:16 39.43316 -10.02344 36099 ft 477 kts 18°
2026-04-30 13:16 39.49632 -9.99626 36101 ft 477 kts 18°
2026-04-30 13:17 39.59089 -9.95546 36102 ft 477 kts 18°
2026-04-30 13:18 39.68485 -9.91479 36102 ft 477 kts 18°
2026-04-30 13:18 39.77924 -9.87382 36103 ft 477 kts 18°
2026-04-30 13:19 39.84189 -9.84655 36105 ft 476 kts 18°
2026-04-30 13:19 39.90488 -9.81909 36101 ft 477 kts 18°
2026-04-30 13:20 39.96776 -9.79161 36098 ft 477 kts 18°
2026-04-30 13:20 40.03054 -9.76414 36102 ft 477 kts 18°
2026-04-30 13:21 40.09307 -9.73672 36105 ft 476 kts 18°
2026-04-30 13:22 40.18721 -9.69534 36100 ft 476 kts 18°
2026-04-30 13:22 40.28146 -9.65379 36097 ft 476 kts 18°
2026-04-30 13:23 40.37514 -9.61236 36097 ft 476 kts 18°
2026-04-30 13:24 40.50083 -9.55659 36091 ft 477 kts 18°
2026-04-30 13:25 40.62616 -9.50076 36093 ft 476 kts 18°
2026-04-30 13:26 40.78276 -9.43070 36088 ft 476 kts 18°
2026-04-30 13:28 40.93948 -9.36024 36089 ft 476 kts 18°
2026-04-30 13:28 41.03322 -9.31753 36088 ft 477 kts 19°
2026-04-30 13:29 41.15839 -9.25981 36091 ft 476 kts 19°
2026-04-30 13:31 41.31436 -9.18769 36089 ft 476 kts 18°
2026-04-30 13:32 41.47079 -9.11499 36095 ft 476 kts 18°
2026-04-30 13:33 41.59572 -9.05665 36103 ft 476 kts 18°
2026-04-30 13:34 41.68940 -9.01277 36098 ft 476 kts 18°
2026-04-30 13:35 41.81410 -8.95413 36102 ft 477 kts 18°
2026-04-30 13:36 41.93669 -8.88594 36104 ft 478 kts 25°
2026-04-30 13:36 42.02619 -8.82789 36100 ft 477 kts 25°
2026-04-30 13:37 42.11547 -8.77005 36100 ft 477 kts 25°
2026-04-30 13:38 42.20500 -8.71180 36107 ft 477 kts 25°
2026-04-30 13:39 42.32439 -8.63422 36095 ft 476 kts 24°
2026-04-30 13:40 42.41363 -8.57595 36093 ft 477 kts 24°
2026-04-30 13:40 42.47340 -8.53682 36091 ft 477 kts 24°
2026-04-30 13:41 42.53293 -8.49776 36093 ft 476 kts 24°
2026-04-30 13:41 42.59246 -8.45862 36084 ft 477 kts 24°
2026-04-30 13:42 42.65194 -8.41943 36088 ft 476 kts 24°
2026-04-30 13:42 42.74118 -8.36046 36089 ft 476 kts 24°
2026-04-30 13:43 42.80052 -8.32114 36086 ft 476 kts 25°
2026-04-30 13:43 42.85986 -8.28174 36092 ft 476 kts 25°
2026-04-30 13:44 42.91925 -8.24221 36096 ft 476 kts 25°
2026-04-30 13:44 42.97863 -8.20262 36090 ft 476 kts 25°
2026-04-30 13:45 43.06769 -8.14306 36087 ft 475 kts 25°
2026-04-30 13:46 43.12696 -8.10329 36084 ft 475 kts 25°
2026-04-30 13:46 43.18626 -8.06343 36080 ft 476 kts 25°
2026-04-30 13:47 43.24550 -8.02375 36123 ft 476 kts 25°
2026-04-30 13:47 43.30474 -7.98356 36087 ft 476 kts 25°
2026-04-30 13:48 43.36411 -7.94329 36079 ft 476 kts 25°
2026-04-30 13:48 43.42321 -7.90318 36076 ft 475 kts 25°
2026-04-30 13:49 43.48248 -7.86292 36070 ft 476 kts 24°
2026-04-30 13:49 43.54141 -7.82280 36069 ft 475 kts 24°
2026-04-30 13:50 43.60046 -7.78252 36067 ft 475 kts 24°
2026-04-30 13:50 43.68926 -7.72176 36065 ft 475 kts 24°
2026-04-30 13:51 43.74833 -7.68119 36064 ft 474 kts 24°
2026-04-30 13:51 43.80738 -7.64054 36064 ft 475 kts 24°
2026-04-30 13:52 43.86604 -7.60009 36065 ft 474 kts 24°
2026-04-30 13:52 43.92519 -7.55924 36061 ft 474 kts 24°
2026-04-30 13:53 43.98401 -7.51852 36062 ft 474 kts 24°
2026-04-30 13:53 44.04278 -7.47774 36063 ft 474 kts 24°
2026-04-30 13:54 44.10134 -7.43703 36066 ft 473 kts 24°
2026-04-30 13:54 44.16010 -7.39609 36065 ft 473 kts 24°
2026-04-30 13:55 44.21887 -7.35506 36066 ft 473 kts 24°
2026-04-30 13:55 44.27758 -7.31397 36068 ft 473 kts 25°
2026-04-30 13:56 44.33620 -7.27286 36072 ft 473 kts 25°
2026-04-30 13:56 44.39498 -7.23152 36075 ft 473 kts 25°
2026-04-30 13:57 44.45355 -7.19032 36092 ft 472 kts 25°
2026-04-30 13:57 44.51195 -7.14908 36083 ft 472 kts 25°
2026-04-30 13:58 44.59955 -7.08694 36068 ft 472 kts 25°
2026-04-30 13:59 44.65800 -7.04544 36075 ft 471 kts 25°
2026-04-30 13:59 44.71651 -7.00378 36069 ft 471 kts 25°
2026-04-30 14:00 44.77490 -6.96215 36070 ft 471 kts 25°
2026-04-30 14:00 44.86009 -6.89398 36065 ft 473 kts 33°
2026-04-30 14:01 44.91346 -6.84058 36065 ft 474 kts 34°
2026-04-30 14:01 44.96698 -6.78610 36065 ft 473 kts 34°
2026-04-30 14:02 45.02026 -6.73195 36063 ft 472 kts 34°
2026-04-30 14:02 45.07345 -6.67789 36064 ft 471 kts 34°
2026-04-30 14:03 45.12650 -6.62389 36067 ft 471 kts 34°
2026-04-30 14:03 45.17956 -6.56980 36072 ft 471 kts 34°
2026-04-30 14:04 45.23224 -6.51573 36102 ft 471 kts 33°
2026-04-30 14:04 45.28538 -6.46192 36095 ft 471 kts 34°
2026-04-30 14:05 45.33847 -6.40737 36081 ft 471 kts 34°
2026-04-30 14:05 45.39143 -6.35277 36077 ft 470 kts 34°
2026-04-30 14:06 45.47031 -6.27129 36071 ft 470 kts 34°
2026-04-30 14:07 45.54957 -6.18916 36062 ft 469 kts 34°
2026-04-30 14:08 45.62826 -6.10731 36066 ft 469 kts 34°
2026-04-30 14:08 45.70705 -6.02506 36065 ft 468 kts 34°
2026-04-30 14:09 45.75927 -5.97044 36064 ft 466 kts 35°
2026-04-30 14:10 45.83749 -5.88834 36066 ft 466 kts 34°
2026-04-30 14:10 45.88959 -5.83348 36064 ft 466 kts 34°
2026-04-30 14:11 45.94169 -5.77850 36064 ft 465 kts 34°
2026-04-30 14:11 45.99381 -5.72337 36061 ft 465 kts 34°
2026-04-30 14:12 46.04570 -5.66834 36065 ft 464 kts 35°
2026-04-30 14:12 46.09735 -5.61343 36062 ft 464 kts 35°
2026-04-30 14:13 46.14889 -5.55849 36066 ft 463 kts 35°
2026-04-30 14:13 46.20073 -5.50312 36060 ft 463 kts 35°
2026-04-30 14:14 46.25216 -5.44804 36057 ft 462 kts 35°
2026-04-30 14:14 46.30389 -5.39252 36059 ft 463 kts 35°
2026-04-30 14:15 46.35527 -5.33724 36057 ft 462 kts 36°
2026-04-30 14:15 46.40659 -5.28189 36055 ft 462 kts 36°
2026-04-30 14:16 46.45809 -5.22619 36049 ft 461 kts 36°
2026-04-30 14:16 46.50922 -5.17079 36053 ft 461 kts 36°
2026-04-30 14:17 46.56018 -5.11541 36049 ft 460 kts 36°
2026-04-30 14:17 46.61117 -5.05989 36049 ft 460 kts 36°
2026-04-30 14:18 46.66231 -5.00406 36050 ft 460 kts 36°
2026-04-30 14:18 46.73864 -4.92047 36048 ft 459 kts 36°
2026-04-30 14:19 46.81484 -4.83675 36049 ft 458 kts 36°
2026-04-30 14:20 46.86568 -4.78069 36047 ft 457 kts 36°
2026-04-30 14:20 46.94141 -4.69696 36050 ft 457 kts 36°
2026-04-30 14:21 46.99188 -4.64099 36044 ft 456 kts 36°
2026-04-30 14:22 47.06742 -4.55697 36042 ft 455 kts 36°
2026-04-30 14:22 47.14290 -4.47270 36046 ft 455 kts 36°
2026-04-30 14:23 47.24300 -4.36049 36041 ft 454 kts 36°
2026-04-30 14:24 47.31827 -4.27573 36035 ft 454 kts 37°
2026-04-30 14:25 47.41801 -4.16295 36034 ft 453 kts 37°
2026-04-30 14:26 47.49265 -4.07818 36039 ft 452 kts 37°
2026-04-30 14:27 47.56735 -3.99305 36043 ft 453 kts 37°
2026-04-30 14:27 47.61683 -3.93647 36041 ft 453 kts 37°
2026-04-30 14:28 47.69153 -3.85080 36040 ft 453 kts 37°
2026-04-30 14:28 47.74123 -3.79362 36035 ft 454 kts 38°
2026-04-30 14:29 47.83252 -3.68824 36037 ft 455 kts 38°
2026-04-30 14:31 47.96503 -3.53450 36037 ft 455 kts 38°
2026-04-30 14:31 48.03949 -3.44750 36030 ft 455 kts 39°
2026-04-30 14:32 48.11401 -3.36014 36038 ft 455 kts 39°
2026-04-30 14:33 48.16411 -3.30130 36041 ft 455 kts 40°
2026-04-30 14:33 48.23847 -3.21363 36038 ft 455 kts 40°
2026-04-30 14:34 48.28785 -3.15521 36046 ft 455 kts 40°
2026-04-30 14:34 48.33711 -3.09682 36053 ft 454 kts 40°
2026-04-30 14:35 48.41135 -3.00852 36056 ft 453 kts 40°
2026-04-30 14:36 48.46069 -2.94962 36058 ft 453 kts 40°
2026-04-30 14:36 48.50981 -2.89085 36064 ft 453 kts 40°
2026-04-30 14:37 48.55887 -2.83203 36060 ft 453 kts 41°
2026-04-30 14:37 48.60796 -2.77301 36063 ft 452 kts 41°
2026-04-30 14:38 48.65696 -2.71396 36054 ft 452 kts 41°
2026-04-30 14:38 48.70585 -2.65489 36053 ft 452 kts 41°
2026-04-30 14:39 48.75501 -2.59534 36047 ft 452 kts 41°
2026-04-30 14:39 48.80416 -2.53651 36048 ft 452 kts 39°
2026-04-30 14:40 48.87852 -2.45002 36056 ft 451 kts 40°
2026-04-30 14:40 48.92818 -2.39192 36053 ft 451 kts 39°
2026-04-30 14:41 48.97762 -2.33386 36055 ft 450 kts 40°
2026-04-30 14:41 49.02719 -2.27551 36064 ft 450 kts 40°
2026-04-30 14:42 49.07634 -2.21748 36066 ft 450 kts 40°
2026-04-30 14:42 49.12585 -2.15888 36074 ft 450 kts 40°
2026-04-30 14:43 49.17520 -2.10030 36076 ft 450 kts 40°
2026-04-30 14:43 49.22546 -2.04426 36074 ft 451 kts 35°
2026-04-30 14:44 49.27960 -1.99553 36075 ft 452 kts 31°
2026-04-30 14:44 49.33443 -1.94932 36077 ft 452 kts 31°
2026-04-30 14:45 49.38935 -1.90284 36078 ft 452 kts 31°
2026-04-30 14:45 49.44435 -1.85603 36078 ft 452 kts 31°
2026-04-30 14:46 49.49912 -1.80925 36082 ft 452 kts 31°
2026-04-30 14:46 49.55378 -1.76242 36084 ft 452 kts 31°
2026-04-30 14:47 49.61017 -1.71928 36086 ft 454 kts 25°
2026-04-30 14:47 49.66923 -1.68477 36088 ft 455 kts 21°
2026-04-30 14:48 49.72830 -1.65246 36097 ft 455 kts 21°
2026-04-30 14:48 49.78800 -1.61960 36094 ft 455 kts 21°
2026-04-30 14:49 49.84710 -1.58685 36097 ft 455 kts 21°
2026-04-30 14:49 49.90640 -1.55390 36089 ft 455 kts 21°
2026-04-30 14:50 49.99542 -1.50426 36095 ft 454 kts 20°
2026-04-30 14:51 50.08586 -1.45950 36103 ft 455 kts 18°
2026-04-30 14:52 50.17623 -1.41538 36132 ft 456 kts 18°
2026-04-30 14:52 50.26669 -1.37111 36118 ft 456 kts 19°
2026-04-30 14:53 50.35723 -1.32632 36120 ft 456 kts 20°
2026-04-30 14:54 50.47784 -1.26641 36126 ft 455 kts 22°
2026-04-30 14:55 50.53172 -1.21768 36154 ft 449 kts 42°
2026-04-30 14:55 50.55576 -1.18619 36155 ft 449 kts 43°
2026-04-30 14:56 50.65047 -1.05861 36141 ft 448 kts 47°
2026-04-30 14:57 50.71122 -0.94851 36144 ft 444 kts 54°
2026-04-30 14:58 50.78872 -0.79785 36158 ft 444 kts 54°
2026-04-30 14:58 50.82250 -0.67093 36168 ft 419 kts 83°
2026-04-30 15:00 50.84699 -0.44480 36177 ft 418 kts 83°
2026-04-30 15:01 50.86746 -0.26455 36181 ft 417 kts 83°
2026-04-30 15:01 50.88265 -0.12957 36172 ft 407 kts 83°
2026-04-30 15:02 50.88766 -0.08675 36175 ft 393 kts 79°
2026-04-30 15:02 50.89843 -0.04735 36155 ft 392 kts 57°
2026-04-30 15:03 50.97327 -0.00478 36176 ft 420 kts 346°
2026-04-30 15:03 51.01978 -0.05764 36185 ft 421 kts 298°
2026-04-30 15:04 51.02959 -0.14500 36184 ft 405 kts 251°